Wind_Speed
31 31 30 30 30 30 31 32 33 32 32 32 33 34 34 34 35 35 35 36 37 37 39 39 40 40 42 43 43 43 44 45 45 46 46 47 48 49 50 51 52 53 54 54
31 31 30 30 30 30 31 32 33 33 33 33 34 34 34 34 34 35 35 36 36 37 37 37 38 39 40 41 42 43 43 44 44 44 46 46 47 48 49 50 51 52 53 53
31 31 31 30 29 30 31 32 32 33 33 33 33 33 33 34 34 34 34 34 35 35 36 37 37 38 39 40 40 41 42 43 44 44 45 45 46 47 48 49 50 51 52 52
31 31 31 30 29 29 31 31 32 32 32 33 33 32 33 33 34 34 34 35 34 35 35 36 37 37 38 39 40 40 41 43 44 45 45 45 46 47 48 49 50 51 51 51
31 31 32 29 29 29 29 30 30 31 31 32 32 32 32 33 33 34 34 34 34 35 35 36 36 37 37 38 39 40 41 42 43 45 45 46 47 47 48 49 49 50 51 51
31 32 32 31 30 29 30 30 29 29 30 30 30 30 30 32 33 34 34 34 34 35 35 36 36 36 37 37 38 39 40 41 41 42 43 44 45 46 47 48 49 49 50 50
30 31 32 31 31 31 31 30 30 30 30 30 29 30 30 31 32 33 33 34 34 35 35 36 36 36 37 38 38 39 39 40 41 41 42 43 43 44 45 46 47 48 49 49
30 30 30 31 31 32 32 31 31 31 30 30 30 31 31 31 32 32 32 33 33 33 33 34 34 34 34 35 36 37 38 39 39 40 40 41 41 41 43 44 45 45 46 47
30 30 29 30 31 31 31 31 31 31 31 31 31 31 31 32 32 32 32 31 31 31 31 32 33 33 34 34 35 35 35 36 37 38 38 38 39 39 40 41 42 43 44 45
30 30 29 29 30 30 31 31 32 32 32 32 31 31 31 31 31 30 30 30 30 30 31 31 32 33 33 34 34 34 34 34 35 35 36 37 37 38 39 40 41 42 42 43
31 30 30 30 31 31 31 31 32 32 32 32 32 31 31 31 30 30 30 29 30 30 30 30 31 32 33 33 34 33 33 33 34 34 35 35 36 36 37 38 39 40 40 42
30 30 30 30 31 31 31 31 32 32 32 32 32 32 31 31 31 31 30 30 30 29 29 29 30 31 31 32 33 33 33 34 34 34 35 35 35 35 36 37 37 38 38 39
30 30 30 30 30 31 31 31 31 31 31 31 31 31 30 30 30 30 30 30 29 29 30 31 31 31 32 33 34 34 34 34 34 34 35 35 35 35 36 36 37 38 38 39
29 29 29 29 29 30 30 30 29 29 29 30 30 30 30 30 29 29 29 29 29 30 31 32 32 32 33 33 34 34 35 35 35 35 35 35 35 36 36 36 37 37 38 39
29 29 29 29 29 29 29 29 29 29 29 30 30 29 29 29 29 29 29 30 30 30 30 30 30 31 32 32 33 34 34 35 35 35 36 36 36 36 36 36 37 37 37 37
28 28 28 29 29 29 28 28 29 29 29 29 29 29 28 28 28 28 29 29 30 30 29 29 30 30 31 32 33 33 33 34 34 35 35 35 36 36 36 36 36 36 35 35
27 27 27 28 28 28 28 28 28 28 28 28 28 28 27 27 27 28 28 29 29 30 30 30 30 31 31 32 32 33 33 33 33 34 34 34 35 35 34 34 34 34 33 33
27 27 27 27 27 27 27 28 27 26 26 27 27 26 27 27 27 28 28 29 29 30 30 31 32 32 33 33 33 33 32 32 32 33 33 33 33 33 32 32 32 32 32 31
27 27 26 26 27 27 27 27 26 26 26 26 26 26 26 26 27 28 28 29 29 30 31 32 32 33 33 33 33 32 32 32 32 32 32 32 32 32 32 32 31 31 31 30
26 26 26 26 26 26 26 26 26 26 26 26 26 26 26 27 28 28 29 29 30 30 31 32 32 33 34 34 33 33 32 32 31 31 32 32 32 32 32 32 31 31 31 30
25 25 26 26 26 26 26 26 26 26 26 26 26 27 27 28 29 29 30 30 30 31 32 32 33 34 34 34 34 33 32 32 31 32 32 31 31 30 30 30 30 30 30 30
25 25 25 25 25 25 26 26 26 26 26 26 27 28 28 29 30 30 31 31 31 32 33 33 33 34 34 34 33 33 32 32 32 32 32 31 31 30 30 29 29 29 28 28
25 25 25 25 25 26 26 26 26 27 27 27 28 29 30 30 31 31 31 31 32 32 33 33 33 34 34 33 33 32 32 32 32 32 31 30 30 29 29 29 28 27 27 27
25 25 26 26 26 26 27 27 28 29 29 29 30 30 31 31 31 31 31 31 32 32 32 32 33 33 33 32 32 32 32 32 31 31 30 29 29 28 28 28 27 27 27 26
26 26 27 27 27 28 28 28 29 29 30 31 31 32 32 32 32 32 32 31 31 31 31 31 32 32 32 32 32 32 31 31 30 30 29 28 28 27 27 27 27 26 25 25
26 27 27 28 28 28 29 29 29 30 31 31 32 32 32 31 31 31 30 30 30 30 30 30 30 30 30 30 30 30 29 29 29 29 28 28 27 26 26 26 25 25 25 25
27 28 28 29 29 30 30 30 31 31 31 31 31 31 31 30 30 30 29 29 29 29 29 29 29 29 29 29 28 28 27 27 27 27 26 26 26 25 25 25 24 24 24 24
Wind_Direction
282 282 281 280 278 277 277 277 278 278 279 279 278 277 275 273 272 272 271 270 269 268 267 266 266 265 264 264 264 263 263 262 263 263 264 263 262 260 259 259 260 260 260 261
281 280 279 279 278 277 277 279 280 279 279 280 279 278 276 275 274 273 273 272 271 270 269 267 267 266 265 265 265 265 264 264 264 265 265 265 264 264 262 261 261 261 261 262
282 280 279 279 279 278 278 279 280 281 281 280 279 277 276 275 274 273 272 272 272 270 269 268 267 267 267 266 266 267 266 265 265 266 266 266 266 264 263 263 262 262 262 263
284 282 281 283 282 281 280 280 281 282 282 281 279 278 277 276 274 273 273 271 270 270 270 270 269 269 268 268 268 268 268 268 268 267 267 267 267 266 266 265 263 263 263 263
284 283 284 284 285 285 284 283 283 283 282 282 280 280 278 277 276 275 274 273 271 270 270 271 270 269 269 269 270 270 269 269 269 269 268 268 268 268 266 265 264 264 264 264
283 283 285 286 286 286 286 285 284 284 284 284 283 282 281 279 278 277 276 275 273 271 270 271 271 271 272 271 271 271 271 270 270 270 270 269 269 269 267 267 266 265 265 265
285 283 284 285 285 286 286 288 287 285 285 285 284 285 284 283 280 279 278 277 275 272 271 271 272 272 273 273 273 273 273 273 273 272 271 271 271 269 268 268 268 267 266 265
285 284 285 285 285 285 286 287 287 287 286 285 285 286 285 284 281 280 278 278 277 275 273 272 273 273 274 275 276 275 275 274 274 274 273 273 272 271 270 269 269 268 267 266
284 285 286 286 285 285 286 287 287 287 287 287 286 286 285 284 282 281 280 278 278 277 275 275 274 274 275 276 277 277 276 276 275 274 274 274 273 272 272 272 271 270 269 267
283 285 285 285 285 286 286 287 287 287 287 286 285 285 285 283 281 280 280 278 278 278 277 277 277 276 276 278 279 279 278 278 277 276 275 274 274 274 274 274 273 272 271 269
284 285 285 285 286 286 287 288 288 287 286 286 285 285 284 282 281 279 279 278 278 277 278 279 280 279 279 280 280 280 280 279 278 277 276 276 276 276 276 276 275 273 272 270
285 286 287 287 286 286 287 288 288 287 285 285 284 284 283 281 281 280 279 279 279 278 279 280 281 281 280 280 281 281 281 280 280 279 277 277 277 277 277 278 277 275 274 273
285 286 287 288 287 287 287 288 288 287 286 286 286 285 283 282 282 282 281 280 279 279 279 280 282 282 283 283 283 283 282 281 280 280 279 278 278 278 279 279 278 277 276 276
286 286 287 288 288 289 289 288 287 286 287 287 288 288 286 284 283 282 281 280 280 280 281 282 282 282 284 284 284 284 282 281 281 281 280 280 279 279 279 279 279 278 277 276
287 287 287 288 289 290 290 289 288 287 287 288 289 288 287 286 283 282 281 280 280 281 281 283 284 285 286 286 286 286 285 284 283 283 282 281 281 280 279 279 279 278 278 277
287 288 288 288 289 290 290 290 289 289 289 289 289 289 288 286 283 281 280 280 279 280 281 283 285 287 288 288 289 289 287 286 285 285 284 283 282 281 280 279 279 278 277 276
289 290 290 290 291 291 291 292 292 290 289 289 289 289 289 286 283 282 281 281 280 281 281 283 286 288 289 290 290 290 289 288 288 287 287 286 285 283 282 281 280 278 277 275
292 293 294 294 295 293 293 294 293 293 292 291 290 289 289 287 284 282 282 282 281 281 282 283 285 287 289 290 291 291 290 289 289 288 287 287 287 285 284 283 282 280 278 276
293 293 294 295 295 295 295 295 295 293 292 292 291 290 290 289 287 285 284 283 282 282 283 283 285 287 288 289 290 289 289 288 288 288 288 288 287 286 284 283 283 282 280 278
293 293 294 295 295 296 296 297 296 294 293 292 291 291 291 290 289 288 287 286 284 284 284 285 286 287 288 288 289 289 288 287 287 287 288 288 288 286 285 284 284 283 281 279
294 295 296 296 296 295 295 296 296 294 292 291 291 291 292 292 292 290 289 287 285 285 286 287 287 288 288 288 288 287 286 286 286 286 287 287 287 287 286 285 284 283 281 279
296 297 298 298 298 296 296 296 297 296 295 294 293 293 293 294 293 292 290 288 287 287 288 288 289 289 289 288 287 286 285 285 285 286 286 285 285 285 285 285 285 283 281 279
297 298 299 299 298 298 297 297 297 297 297 297 296 295 295 294 294 294 292 290 289 289 289 289 289 290 289 288 287 285 285 284 284 284 285 285 284 284 284 284 284 282 281 280
299 299 299 299 298 298 298 298 298 298 298 297 296 296 296 295 296 295 294 291 290 290 290 291 291 290 290 288 287 286 286 285 284 284 284 283 283 283 283 282 281 281 280 279
300 300 300 300 300 298 298 298 298 298 298 297 296 296 296 295 295 295 295 293 291 291 292 292 292 291 290 288 288 287 287 285 284 283 283 282 282 282 282 281 280 279 279 278
299 300 300 301 301 301 300 299 299 299 298 298 297 297 297 296 295 295 294 294 293 293 293 293 293 292 291 290 289 288 287 285 284 282 282 281 282 282 281 280 279 278 278 278
299 300 300 301 301 301 300 300 300 300 299 299 299 298 298 297 297 296 295 294 294 294 294 293 292 292 292 291 290 289 288 286 285 283 282 281 281 281 280 280 279 278 277 276
Height
5574 5572 5569 5568 5567 5565 5563 5561 5560 5561 5560 5559 5557 5554 5553 5551 5551 5550 5550 5549 5549 5548 5548 5548 5548 5549 5549 5549 5549 5550 5550 5550 5550 5550 5550 5551 5551 5552 5553 5553 5554 5555 5556 5556
5565 5563 5560 5559 5558 5556 5554 5552 5551 5550 5550 5549 5546 5544 5542 5541 5540 5539 5539 5538 5537 5537 5537 5537 5537 5537 5537 5537 5537 5537 5537 5537 5538 5538 5538 5537 5538 5538 5538 5539 5540 5540 5541 5541
5556 5554 5551 5550 5551 5548 5546 5544 5542 5540 5541 5538 5536 5534 5532 5531 5529 5529 5528 5527 5526 5526 5526 5525 5525 5525 5525 5525 5525 5525 5525 5525 5525 5525 5525 5524 5524 5524 5524 5524 5525 5525 5526 5527
5546 5545 5542 5545 5542 5539 5537 5535 5533 5531 5530 5528 5526 5524 5522 5520 5519 5518 5517 5517 5516 5515 5515 5514 5514 5513 5513 5513 5513 5513 5512 5512 5511 5511 5511 5511 5510 5510 5510 5510 5510 5511 5511 5512
5536 5534 5533 5534 5533 5530 5527 5526 5524 5522 5520 5518 5516 5514 5513 5511 5509 5508 5507 5506 5505 5505 5504 5504 5503 5502 5502 5501 5501 5500 5500 5499 5499 5498 5497 5497 5496 5496 5495 5495 5496 5496 5496 5497
5527 5524 5523 5526 5524 5520 5518 5517 5516 5513 5510 5509 5507 5506 5505 5502 5500 5498 5497 5496 5495 5494 5493 5493 5492 5491 5491 5490 5489 5488 5488 5487 5486 5484 5484 5483 5482 5481 5481 5481 5481 5481 5482 5482
5519 5516 5515 5516 5513 5511 5510 5509 5506 5503 5501 5499 5497 5496 5495 5492 5490 5488 5486 5485 5484 5483 5482 5482 5481 5480 5480 5479 5478 5476 5475 5474 5473 5471 5470 5469 5468 5467 5467 5467 5467 5467 5467 5467
5510 5508 5510 5506 5504 5503 5501 5498 5496 5493 5491 5490 5488 5486 5484 5482 5480 5478 5476 5475 5474 5472 5472 5471 5470 5469 5468 5467 5466 5464 5463 5462 5460 5458 5457 5456 5455 5454 5453 5452 5452 5452 5452 5452
5503 5503 5500 5497 5494 5492 5491 5489 5486 5484 5482 5480 5478 5476 5474 5472 5470 5468 5466 5465 5463 5462 5461 5460 5460 5458 5457 5456 5455 5453 5451 5450 5448 5447 5445 5443 5442 5441 5440 5439 5438 5437 5437 5437
5493 5492 5490 5487 5485 5483 5481 5479 5477 5474 5472 5470 5468 5466 5464 5462 5460 5458 5456 5455 5454 5453 5452 5451 5449 5448 5447 5445 5444 5442 5440 5438 5437 5435 5433 5432 5430 5429 5427 5426 5425 5424 5423 5423
5484 5483 5481 5478 5476 5474 5471 5469 5467 5464 5462 5460 5458 5456 5454 5452 5450 5448 5447 5445 5444 5443 5442 5441 5439 5438 5436 5435 5433 5431 5429 5428 5426 5424 5422 5421 5419 5417 5415 5414 5412 5411 5410 5409
5475 5474 5472 5470 5467 5464 5462 5459 5457 5454 5452 5450 5448 5446 5444 5442 5440 5438 5437 5436 5434 5433 5432 5431 5429 5428 5426 5424 5422 5420 5419 5417 5415 5413 5411 5410 5408 5406 5403 5402 5400 5398 5397 5396
5466 5464 5462 5459 5457 5454 5452 5450 5447 5444 5442 5440 5438 5435 5434 5432 5430 5429 5427 5426 5425 5424 5422 5421 5419 5418 5416 5414 5412 5410 5408 5406 5404 5402 5400 5398 5397 5395 5393 5391 5388 5386 5385 5383
5456 5454 5452 5450 5447 5445 5442 5440 5437 5435 5432 5430 5428 5426 5423 5422 5420 5419 5417 5416 5415 5414 5412 5411 5409 5407 5405 5403 5401 5399 5397 5395 5393 5391 5389 5387 5385 5383 5381 5379 5377 5375 5373 5371
5447 5445 5443 5440 5438 5435 5432 5430 5427 5425 5423 5420 5418 5416 5414 5412 5410 5409 5407 5406 5405 5404 5402 5401 5399 5397 5395 5393 5390 5388 5386 5384 5381 5379 5377 5375 5373 5371 5369 5367 5365 5363 5361 5358
5439 5436 5433 5431 5429 5426 5423 5420 5418 5416 5413 5411 5408 5406 5404 5402 5400 5399 5397 5396 5395 5394 5393 5391 5389 5387 5385 5383 5380 5378 5375 5373 5370 5368 5366 5363 5361 5359 5357 5355 5353 5351 5349 5347
5429 5427 5425 5422 5420 5417 5414 5411 5409 5406 5404 5402 5399 5397 5395 5393 5391 5389 5388 5386 5385 5384 5383 5381 5379 5377 5375 5373 5370 5367 5365 5362 5359 5357 5354 5352 5349 5347 5345 5343 5341 5339 5337 5335
5421 5418 5416 5413 5411 5408 5405 5403 5400 5398 5395 5393 5391 5388 5386 5384 5382 5380 5379 5377 5375 5374 5372 5371 5369 5367 5365 5362 5359 5357 5354 5351 5349 5346 5344 5341 5339 5336 5334 5332 5330 5328 5326 5325
5413 5410 5407 5405 5402 5399 5397 5394 5392 5389 5387 5384 5382 5380 5377 5375 5373 5371 5369 5367 5366 5364 5363 5361 5359 5356 5354 5351 5349 5346 5343 5341 5339 5336 5333 5331 5329 5326 5324 5322 5319 5317 5316 5314
5404 5402 5399 5396 5394 5391 5389 5386 5383 5381 5378 5376 5374 5371 5369 5367 5364 5362 5360 5358 5356 5354 5352 5350 5348 5346 5343 5340 5338 5335 5333 5330 5328 5326 5323 5321 5318 5316 5314 5311 5309 5307 5305 5304
5396 5394 5391 5389 5386 5383 5381 5378 5375 5373 5370 5368 5365 5363 5360 5358 5355 5353 5350 5348 5346 5344 5342 5339 5337 5334 5332 5329 5326 5324 5322 5320 5318 5316 5313 5311 5308 5306 5304 5301 5299 5297 5295 5294
5388 5386 5383 5381 5378 5375 5373 5370 5367 5364 5362 5359 5357 5354 5351 5349 5346 5343 5341 5338 5336 5333 5331 5328 5326 5323 5320 5318 5315 5313 5311 5309 5307 5305 5303 5300 5298 5296 5294 5292 5290 5287 5286 5284
5380 5378 5375 5373 5370 5367 5364 5361 5359 5356 5353 5350 5348 5345 5342 5339 5336 5333 5331 5328 5325 5322 5320 5317 5314 5312 5309 5307 5304 5302 5300 5298 5296 5294 5292 5290 5288 5286 5284 5282 5280 5278 5276 5275
5372 5370 5367 5364 5361 5359 5356 5353 5350 5347 5344 5341 5338 5335 5332 5329 5326 5323 5320 5317 5314 5311 5309 5306 5303 5301 5298 5296 5293 5291 5289 5287 5285 5283 5281 5279 5278 5276 5274 5272 5271 5269 5267 5266
5364 5361 5359 5356 5353 5350 5347 5344 5341 5338 5335 5332 5329 5326 5322 5319 5316 5313 5310 5307 5304 5301 5298 5295 5293 5290 5287 5285 5283 5280 5278 5276 5274 5273 5271 5269 5268 5266 5265 5263 5261 5260 5259 5257
5356 5353 5350 5347 5344 5341 5338 5335 5332 5329 5325 5322 5319 5316 5312 5309 5306 5303 5300 5297 5294 5291 5288 5285 5282 5280 5277 5275 5272 5270 5268 5266 5264 5262 5261 5260 5258 5257 5255 5253 5252 5251 5250 5249
5347 5344 5341 5338 5335 5332 5329 5326 5322 5319 5316 5312 5309 5306 5302 5299 5296 5293 5290 5287 5284 5281 5278 5275 5273 5270 5267 5265 5262 5260 5258 5256 5254 5253 5251 5250 5249 5247 5246 5244 5243 5242 5241 5240